星链-1921 (STARLINK-1921 )

导读 | 星芒AI

STARLINK-1921 是 SpaceX Starlink 卫星互联网项目中的第 1921 颗卫星,属于低轨卫星群的一部分。该卫星于 2023 年发射,旨在为全球用户提供高速、低延迟的互联网服务。它运行在约 550 公里的轨道高度,采用先进的通信技术,支持宽带连接。Starlink 项目致力于改善偏远地区的网络覆盖,推动全球互联网普及。STARLINK-1921 的部署进一步增强了 Starlink 网络的稳定性和服务能力。

基本信息
目录编号:
46752
目录名称:
STARLINK-1921
国际标识:
2020-074P
轨道中心:
EARTH
卫星名称:
星链-1921
卫星全名:
星链-1921 (STARLINK-1921 )
卫星状态:
已陨落 最后检测时间 2025-02-07
发射日期:
2020-10-24 UTC
国别 :
美国 (US)
星等 :
--
轨道信息
数据来源 国际轨道数据
星历时间: 2025-02-07T16:29:41+0800
轨道信息已过期312天
半长轴: 6540.34km
偏心率: 0.0007084
轨道倾角: 53.034°
近地点辐角 260.006°
升交点赤经 259.687°
平近点角 272.300°
近地点: 157.571km
远地点: 166.839km
周期: 87.732分钟
每日圈数: 16.413544
详细信息
固有亮度:
5
最大亮度:
2.5
卫星平台:
Starlink V1.0
覆盖范围:
全球
运营商:
太空探索技术公司
运营商所在国:
美国
制造商(研发单位):
太空探索技术公司
制造商所在国:
美国
使用方式:
暂无
卫星简介
星链(Starlink)计划是由太空探索技术公司(SpaceX)提出的一个巨型低轨卫星互联网星座项目,计划在2019年至2024年间在太空搭建由约1.2万颗卫星组成的“星链”网络,其中1584颗将部署在地球上空550千米处的近地轨道,并从2020年开始工作。该卫星仍在工作。